Poplar Bluff, MO

11:42 AM CDT on July 16, 2019 (GMT -0500)
Poplar Bluff Municipal

Weather History for KPOF - May, 2019

Change the Weather History Date:

Thursday, May 16, 2019

  Actual Average Record
Temperature  
Mean Temperature 75 °F -  
Max Temperature 87 °F 80 °F 95 °F (1944)
Min Temperature 63 °F 55 °F 38 °F (1926)
Cooling Degree Days 10    
Growing Degree Days 25 (Base 50)    
Moisture  
Dew Point 66 °F    
Average Humidity 83    
Maximum Humidity 100    
Minimum Humidity 49    
Precipitation  
Precipitation 0.00 in - - ()
Sea Level Pressure  
Sea Level Pressure 29.92 in    
Wind  
Wind Speed 3 mph (SSW)    
Max Wind Speed 15 mph    
Max Gust Speed 22 mph    
Visibility 6 miles    
Events      
Averages and records for this station are not official NWS values.
T = Trace of Precipitation, MM = Missing Value Source: NWS Daily Summary

Daily Weather History Graph

Daily Weather History Graph

Search for Another Location

Airport or City:

Astronomy

May. 16, 2019 Rise Set
Actual Time 5:53 AM CDT 8:02 PM CDT
Civil Twilight 5:24 AM CDT 8:31 PM CDT
Nautical Twilight 4:48 AM CDT 9:07 PM CDT
Astronomical Twilight 4:10 AM CDT 9:45 PM CDT
Moon 5:47 PM CDT 4:45 AM CDT
Length of Visible Light 15h 07m
Length of Day
14h 09m
Waxing Gibbous, 94% of the Moon is Illuminated
May 16
Waxing Gibbous
May 18
Full
May 26
Last Quarter
Jun 3
New
Jun 10
First Quarter

Hourly Weather History & Observations

Time (CDT) Temp. Heat Index Dew Point Humidity Pressure Visibility Wind Dir Wind Speed Gust Speed Precip Events Conditions
12:53 AM 66.9 °F - 64.9 °F 93% 29.93 in 7.0 mi ENE 3.5 mph - N/A   Clear
1:53 AM 66.0 °F - 64.9 °F 96% 29.93 in 5.0 mi Calm Calm - N/A   Clear
2:53 AM 64.0 °F - 64.0 °F 100% 29.93 in 4.0 mi Calm Calm - N/A   Clear
3:31 AM 63.0 °F - 63.0 °F 100% 29.94 in 1.8 mi Calm Calm - N/A   Clear
3:53 AM 63.0 °F - 63.0 °F 100% 29.93 in 2.5 mi Calm Calm - N/A   Clear
3:58 AM 64.0 °F - 64.0 °F 100% 29.94 in 3.0 mi Calm Calm - N/A   Partly Cloudy
4:11 AM 63.0 °F - 63.0 °F 100% 29.94 in 2.5 mi Calm Calm - N/A   Scattered Clouds
4:19 AM 64.0 °F - 64.0 °F 100% 29.94 in 2.5 mi Calm Calm - N/A   Mostly Cloudy
4:53 AM 64.0 °F - 64.0 °F 100% 29.93 in 2.5 mi Calm Calm - N/A   Overcast
5:08 AM 64.0 °F - 64.0 °F 100% 29.95 in 3.0 mi Calm Calm - N/A   Overcast
5:28 AM 64.9 °F - 64.0 °F 97% 29.95 in 2.5 mi Calm Calm - N/A   Overcast
5:41 AM 64.9 °F - 64.9 °F 100% 29.96 in 3.0 mi Calm Calm - N/A   Overcast
5:53 AM 64.9 °F - 64.9 °F 100% 29.95 in 2.5 mi Calm Calm - N/A   Overcast
6:09 AM 64.0 °F - 64.0 °F 100% 29.96 in 1.5 mi Calm Calm - N/A   Overcast
6:53 AM 64.9 °F - 64.9 °F 100% 29.96 in 1.2 mi Calm Calm - N/A   Overcast
7:42 AM 66.9 °F - 66.9 °F 100% 29.97 in 2.0 mi Calm Calm - N/A   Mostly Cloudy
7:50 AM 68.0 °F - 66.2 °F 94% 29.97 in 3.0 mi Calm Calm - N/A   Mostly Cloudy
7:53 AM 68.0 °F - 66.9 °F 96% 29.96 in 3.0 mi Calm Calm - N/A   Scattered Clouds
8:53 AM 72.0 °F - 66.0 °F 81% 29.96 in 9.0 mi WSW 4.6 mph - N/A   Clear
9:53 AM 75.9 °F - 66.9 °F 74% 29.95 in 10.0 mi SSW 5.8 mph - N/A   Clear
10:53 AM 79.0 °F - 68.0 °F 69% 29.94 in 10.0 mi SSW 8.1 mph - N/A   Clear
11:53 AM 82.0 °F 86.3 °F 71.1 °F 69% 29.94 in 10.0 mi SSW 9.2 mph - N/A   Clear
12:53 PM 82.9 °F 87.5 °F 71.1 °F 67% 29.92 in 10.0 mi SSW 8.1 mph - N/A   Clear
1:53 PM 84.0 °F 87.8 °F 69.1 °F 61% 29.91 in 10.0 mi SW 10.4 mph - N/A   Partly Cloudy
2:53 PM 86.0 °F 89.4 °F 68.0 °F 55% 29.89 in 10.0 mi SW 13.8 mph - N/A   Partly Cloudy
3:53 PM 86.0 °F 88.8 °F 66.9 °F 53% 29.87 in 10.0 mi SSW 13.8 mph 21.9 mph N/A   Clear
4:53 PM 87.1 °F 89.2 °F 66.0 °F 49% 29.85 in 10.0 mi SW 11.5 mph - N/A   Clear
5:53 PM 86.0 °F 89.4 °F 68.0 °F 55% 29.84 in 10.0 mi SW 15.0 mph - N/A   Clear
6:53 PM 84.0 °F 85.4 °F 64.0 °F 51% 29.83 in 10.0 mi SW 12.7 mph - N/A   Clear
7:53 PM 80.1 °F 82.3 °F 66.9 °F 64% 29.84 in 10.0 mi SSW 6.9 mph - N/A   Clear
8:53 PM 77.0 °F - 66.9 °F 71% 29.85 in 10.0 mi SSW 4.6 mph - N/A   Clear
9:53 PM 75.9 °F - 66.9 °F 74% 29.86 in 10.0 mi SSW 6.9 mph - N/A   Clear
10:53 PM 73.9 °F - 66.9 °F 79% 29.86 in 10.0 mi SSW 8.1 mph - N/A   Clear
11:53 PM 73.0 °F - 66.9 °F 81% 29.83 in 10.0 mi SSW 8.1 mph - N/A   Clear